{"data":{"norad_id":67471,"intl_designator":"2026-008AC","name":"STARLINK-36334","alt_names":[],"object_type":"PAYLOAD","status":"ACTIVE","operator":null,"country":"US","launch_date":"2026-01-14","launch_site_code":"AFETR","launch_vehicle":null,"mission":null,"orbit_class":"UNKNOWN","rcs_meters":null,"size_class":null,"mass_kg":null,"dimensions":null,"purposes":["comms"],"wikipedia_slug":null,"has_3d_model":false,"image_url":null,"decayed_at":null,"tle_current":{"epoch":"2026-09-19T12:49:28.100928Z","epoch_age_seconds":155701,"freshness":"FRESH","line1":"1 67471U 26008AC  26262.53435302  .00011026  00000+0  40944-3 0  9997","line2":"2 67471  43.0040 190.8738 0001591 262.3681  97.6990 15.27593539 39212","mean_motion":15.27593539,"eccentricity":0.0001591,"inclination_deg":43.004,"raan_deg":190.8738,"arg_perigee_deg":262.3681,"mean_anomaly_deg":97.699,"bstar":0.00040944,"rev_number":3921,"period_min":94.265913231255,"perigee_km":481.91694744454,"apogee_km":484.10016396036,"semimajor_km":6861.1455557024,"source":"CELESTRAK","updated_at":"2026-09-20T09:00:43.554565Z"}}}